Location: Stony Plain
(53.5279°N, 114.0019°W)
Time: 17:31:32
(UTC-06:00)

Envisat - Visible Passes

Search period start: 22 October 2019 00:00
Search period end: 01 November 2019 00:00
Orbit: 764 x 766 km, 98.1° (Epoch: 22 October)

Date Brightness Start Highest point End Pass type
(mag) Time Alt. Az. Time Alt. Az. Time Alt. Az.
22 Oct 6.0 07:20:41 10° NE 07:24:10 18° E 07:27:37 10° SE visible
22 Oct 4.7 20:20:22 10° SSW 20:24:59 34° W 20:29:38 10° NNW visible
23 Oct 3.5 19:42:58 10° S 19:48:01 66° WSW 19:53:06 10° NNW visible
23 Oct 6.2 21:26:24 10° WSW 21:28:04 11° W 21:29:45 10° WNW visible
24 Oct 3.0 19:06:12 10° SSE 19:11:14 68° ENE 19:16:18 10° N visible
24 Oct 5.5 20:46:49 10° SW 20:50:45 22° W 20:54:42 10° NW visible
25 Oct 6.2 07:09:52 10° NE 07:12:44 15° E 07:15:36 10° ESE visible
25 Oct 4.3 20:08:51 10° SSW 20:13:38 41° W 20:18:28 10° NNW visible
26 Oct 3.2 19:31:38 10° SSE 19:36:44 79° WSW 19:41:51 10° NNW visible
26 Oct 6.0 21:13:57 10° WSW 21:16:37 14° W 21:19:17 10° NW visible
27 Oct 5.8 07:34:31 10° NE 07:38:35 23° E 07:42:38 10° SE visible
27 Oct 3.1 18:55:03 10° SE 19:00:00 56° ENE 19:04:59 10° N visible
27 Oct 5.2 20:35:06 10° SSW 20:39:22 27° W 20:43:39 10° NW visible
28 Oct 6.4 06:59:16 10° ENE 07:01:17 12° E 07:03:18 10° ESE visible
28 Oct 3.9 19:57:23 10° S 20:02:19 50° W 20:07:16 10° NNW visible
29 Oct 3.0 19:20:22 10° SSE 19:25:27 86° ENE 19:30:35 10° NNW visible
29 Oct 5.8 21:01:52 10° SW 21:05:11 17° W 21:08:30 10° NW visible
30 Oct 6.0 07:23:32 10° NE 07:27:12 20° E 07:30:50 10° SE visible
30 Oct 3.3 18:43:56 10° SE 18:48:47 47° ENE 18:53:39 10° N visible
30 Oct 4.8 20:23:28 10° SSW 20:28:00 32° W 20:32:33 10° NNW visible
31 Oct 3.6 19:45:59 10° S 19:51:00 61° WSW 19:56:04 10° NNW visible
31 Oct 6.3 21:30:07 10° W 21:31:07 11° W 21:32:07 10° WNW visible
